カタログに戻る

FENGYUN 1C DEB

運用中SSO
NORAD 29842·DEBRIS·🇨🇳 China

打ち上げ May 10, 1999 から Taiyuan Satellite Launch Center

Loading…

次のパス (今後24時間)

TLE

最新Source: Space-Track

元期: Sep 14, 2026, 13:06 UTC

1 29842U 99025EL  26257.54617690  .00002638  00000-0  48660-3 0  9996
2 29842  98.5671 359.9901 0103652  32.3189 340.7537 14.62999102 33774

AllMySatでFENGYUN 1C DEBをリアルタイム追跡

Download on the App Store